Погода в Рославле

Погода в Рославле : погода сейчас, прогноз погоды и архив. Всё, что Вы хотите узнать о погоде в Рославле!

Хотите узнать прогноз погоды в Рославле? Тогда Вам сюда: Погода в Рославле

Поиск расширенной информации на нашем сайте:

Другие новости

Новости СМИ2

Главная страница сайта

Новости сайта

03.07.2017

Напоминаем, что на нашем специализированном сайте Метеоцентр.Азия вы можете получить высокодетализированные автоматические прогнозы погоды по пунктам России, СНГ и мира в авиационном формате (включающие направление и скорость ветра, видимость, явления погоды, количество и форму облачности, нижнюю и верхнюю границу облачности).

Рекомендуем: аренда дома одесса

Погода в Рославле - сегодня

Время (UTC), дата Ветер
(°,м/с) 
Видим.   Явления Облачность Т
(°С)
Тd
(°С)
f(%) Тe
(°С)
Pmin
(гПа)
dP
(гПа)
Po
(мм)
O2
(г/м3)
Тmin Tmax R s Состояние
почвы
15 18.10.17 270 (З) 3{11}  18000 м    9/4 600 м средняя, верхняя 
[Cu hum|Ac trans|Cs]
+13.4 +10.6 83 +15  1010.4  0.2  738  281           
18 18.10.17 290 (З) 50000 м    5/0 верхняя 
[Cs]
+12 +8.1 77 +11  1011.5  0.9  739  284    +15.6       
21 18.10.17 270 (З) 50000 м    9/0 средняя 
[Ac trans]
+11.1 +7.7 80 +11  1012.1  0.5  739  285           
00 19.10.17 270 (З) 50000 м    9/0 средняя 
[Ac trans]
+10.7 +6.8 77 +10  1013.2  740  286           
03 19.10.17 340 (С) 50000 м    9/3 600 м средняя 
[Cu hum|Ac trans]
+9.8 +6.6 80 +10  1014.6  1.4  741  287  +9.3         
06 19.10.17 340 (С) 20000 м    9/0 верхняя 
[Ci]
+6.6 +3.2 79 +6  1017.2  2.2  742  292  +6.2         
09 19.10.17 320 (СЗ) 20000 м    9/1 1000 м средняя, верхняя 
[Cu hum|Ac trans|Cs]
+9 +2.7 65 +8  1018.4  1.4  743  290           
12 19.10.17 320 (СЗ) 20000 м    9/1 1000 м средняя, верхняя 
[Cu hum|Ac trans|Ci fib]
+9.5 +1.8 59 +9  1018.4  743  289           
15 19.10.17 270 (З) 20000 м    4/0 средняя, верхняя 
[Ac trans|Ci fib]
+5.5 +1.2 74 +5  1019.3  0.6  744  294           
18 19.10.17 280 (З) 50000 м    ясно 
+3.1 +1.4 89 +3  1020.5  0.9  745  296    +10.2       
21 19.10.17 320 (СЗ) 50000 м    ясно 
+1.6 +0.7 94 +2  1021.7  745  298           
00 20.10.17 300 (СЗ) 50000 м    9/0 средняя 
[Ac trans]
+0.6 +0 96 +1  1022.5  0.7  746  300           
03 20.10.17 240 (ЮЗ) 50000 м    3/0 средняя 
[Ac trans]
-0.5 -1.1 96 1022.8  0.1  746  301  -0.8         
06 20.10.17 300 (СЗ) 20000 м    8/0 средняя 
[Ac trans]
+2.3 +1.3 93 +3  1023.8  1.3  747  298  -1.4         
09 20.10.17 010 (С) 20000 м    8/3 1000 м средняя, верхняя 
[Cu hum|Ac trans|Ci]
+8.1 +2.9 70 +8  1023.8  0.6  747  292           
12 20.10.17 350 (С) 20000 м    4/0 средняя 
[Ac cast]
+9.3 -2.4 44 +9  1022.8  -0.9  747  291           
15 20.10.17 тихо ()   20000 м    5/0 средняя, верхняя 
[Ac trans|Cc]
+6.2 -2.2 55 +6  1022.9  0.1  746  294           
18 20.10.17 250 (З) 50000 м    6/0 средняя, верхняя 
[Ac trans|Ci]
+2.6 -2.3 70 +3  1023.4  0.1  747  298    +9.7       
21 20.10.17 250 (З) 50000 м    8/0 средняя 
[Ac trans]
+1.4 -1.2 83 +2  1023.3  -0.2  746  299           
00 21.10.17 260 (З) 50000 м    9/0 средняя 
[Ac trans]
+2.1 -0.2 85 +3  1022.6  -0.6  746  298           
03 21.10.17 060 (СВ) 50000 м    9/0 средняя 
[Ac trans]
+2.6 +0.2 84 +3  1022  -0.5  746  298  +1.2         
06 21.10.17 090 (В) 20000 м    6/0 средняя 
[Ac trans]
+1.7 +0.3 90 +2  1022.2  0.1  746  299  +1.1         
09 21.10.17 080 (В) 20000 м    8/0 средняя 
[Ac trans]
+4.6 -1 67 +4  1021.6  -0.3  745  295           
12 21.10.17 100 (В) 20000 м    8/3 1000 м средняя, верхняя 
[Cu hum|Ac trans|Ci fib]
+6 -4.1 48 +7  1019.6  -1.8  744  294           
15 21.10.17 290 (З) 20000 м    8/0 средняя, верхняя 
[Ac trans|Ci fib]
+2.1 -3.8 65 +3  1019.5  -0.5  744  298           
Время (UTC), дата Ветер
(°,м/с) 
Видим.   Явления Облачность Т
(°С)
Тd
(°С)
f(%) Тe
(°С)
Pmin
(гПа)
dP
(гПа)
Po
(мм)
O2
(г/м3)
Тmin Tmax R s Состояние
почвы

Для получения пояснительной информации подведите курсор к названию столбца.

ПОГОДА в Рославле - архив

Всё, что Вы хотите узнать о погоде в Рославле - удобно и подробно!

Выберите нужную дату (начиная с 1 января 2015* года) и нажмите кнопку "Найти".
Будут отображены архивные сводки погоды по пункту Рославль, начиная с указанной даты.


Отображать данные в формате CSV (для использования в таблицах Excel)


Внимание! Наш архив погоды предназначен исключительно для личного некоммерческого использования в познавательных целях. Если Вам необходимы официальные справки о состоянии погоды (для производственных, юридических, коммерческих и т.п. целей), обращайтесь в органы Росгидромета.

*Примечание: данная дата относится к архиву по метеостанциям СССР (Россия, СНГ, Балтия).
Архив по метеостанциям Зарубежной Европы и Азии (кроме Китая) хранится 10 дней, по другим регионам земного шара (Китай, Африка, Америка, Австралия, Океания) - 1 день.

Рославль - район местоположения метеостанции


Название, широта, долгота, высота метеостанции:
Рославль 53.9°ш. 32.8°д. 224 м над ур. моря [Российская Федерация]

Дополнительная информация

В oтличие oт бoльшинства пoгoдных сайтoв мы публикуем пoдрoбную метеoинфoрмацию в детальнoм прoфессиoнальнoм фoрмате.

Характеристики температуры и влажнoсти вoздуха измеряются на высoте 2 м в тени вдали oт зданий и деревьев.
Скoрoсть ветра измеряется на высoте 10 м (на урoвне рoста челoвека скoрoсть ветра ниже в 1.5-2 раза). Если метеoстанция нахoдится в гoрoде или в лесу, тo скoрoсть ветра занижена на 2-4 м/с пo сравнению с oткрытым местoм. Скoрoсть ветра над акватoриями крупных рек и oзёр, а также на вершинах хoлмoв на 2-5 м/с выше, чем в oбычных услoвиях.
Атмoсфернoе давление в разных тoчках местнoсти мoжет значительнo oтличаться oт давления на метеoстанции, в зависимoсти oт услoвий рельефа (при пoдъёме на 10 м давление пoнижается примернo на 1 мм рт.ст.).